SCP
0 0 0 0 0 0 0 1 0 0 1 0 0 0 0 0 -0 -0 -0 -0 -0 -0 -0 0 0 0 -0 -0 -0 -0 -0 -0
0 0 0 0 0 0 0 1 0 0 1 1 0 0 0 0 -0 -0 -0 -0 -0 -0 0 -0 0 0 -0 -0 -0 -0 -0 -0
0 0 0 0 0 0 0 0 0 0 1 1 0 0 0 0 0 0 0 0 0 0 0 0 0 0 0 0 0 -0 -0 -0
0 0 -0 0 0 0 0 0 0 0 1 0 0 0 0 0 0 0 0 0 0 0 0 0 0 0 0 0 -0 -0 -0 -0
0 -0 -0 -0 0 0 0 0 0 0 1 0 0 0 0 0 0 0 0 0 0 0 0 0 0 0 0 0 -0 -0 -0 -0
-0 -0 -0 -0 -0 0 0 0 0 0 0 0 0 0 0 0 0 0 0 0 0 0 0 0 0 0 0 0 -0 -0 -0 -0
0 -0 -0 -0 -0 0 0 0 0 0 0 0 0 0 0 0 0 0 0 0 0 0 0 0 0 0 0 0 -0 -0 -0 -0
0 -0 -0 -0 -0 0 0 0 0 0 0 0 0 0 0 0 0 0 0 0 0 0 0 0 0 0 0 0 0 0 -0 -0
0 0 -0 0 -0 0 0 0 0 0 0 0 0 0 0 0 0 0 0 0 0 0 0 0 0 0 0 0 0 -0 0 0
0 0 0 0 0 0 0 0 -0 -0 -0 0 0 0 0 0 0 0 0 0 0 0 0 0 0 0 0 0 0 0 0 0
0 0 0 0 0 0 0 0 -0 0 0 0 0 0 0 0 0 0 0 0 0 0 0 0 0 0 0 0 0 0 0 0
0 0 0 0 0 0 0 0 0 0 0 0 0 0 0 0 0 0 0 0 0 0 0 0 0 0 0 0 0 0 0 0
0 0 0 0 0 0 0 0 0 0 0 0 0 0 0 0 0 0 0 0 0 0 0 0 0 0 0 0 0 0 0 0
0 -0 0 0 0 0 0 0 0 0 0 0 0 0 0 0 0 0 0 0 0 0 0 0 0 0 0 0 0 0 0 0
0 0 -0 0 0 0 0 0 0 0 0 0 0 0 0 0 0 0 0 0 0 0 0 0 0 0 0 0 0 0 0 0
-0 -0 0 0 0 0 0 0 0 0 0 0 0 0 0 0 0 0 0 0 0 0 0 0 0 0 0 0 0 0 0 0
-0 -0 -0 -0 -0 -0 -0 -0 0 0 0 0 0 0 0 -0 0 0 0 0 0 0 0 0 0 0 0 0 0 0 0 0
-0 -0 -0 -0 -0 -0 -0 -0 0 0 -0 -0 -0 -0 -0 -0 -0 -0 -0 -0 0 0 0 0 0 0 0 0 0 0 0 0
-0 -0 -0 -0 -0 -0 -0 -0 -0 0 0 -0 -0 -0 -0 -0 -0 -0 -0 0 0 0 0 0 0 0 0 0 0 0 0 0
-0 -0 -0 -0 -0 -0 0 0 -0 -0 -0 -0 -0 -0 -0 -0 -0 -0 -0 0 0 0 0 0 0 0 0 0 0 0 0 0
Wind_Speed_500mb
55 63 55 50 51 57 63 59 64 59 66 73 72 70 66 62 63 61 55 50 49 51 50 47 40 37 35 36 38 37 37 37
53 55 69 51 54 60 77 77 63 69 74 75 73 67 61 63 65 62 55 48 47 48 46 42 38 35 32 32 34 35 35 35
31 54 68 48 26 63 89 72 66 73 80 77 74 68 65 66 64 61 53 47 45 45 44 39 36 31 27 28 30 32 32 32
48 16 34 45 48 69 83 72 70 71 78 79 75 71 67 65 60 57 53 46 42 38 34 31 26 26 27 25 25 29 29 30
41 20 47 40 74 64 86 76 70 65 75 76 76 73 69 65 61 56 51 44 42 40 34 26 23 23 23 22 22 24 26 27
39 33 57 66 70 81 95 86 79 72 70 74 77 74 70 66 60 54 52 45 39 37 38 30 24 23 19 20 19 19 21 21
34 56 62 60 62 88 99 89 82 80 81 79 77 74 68 64 59 52 47 46 39 36 34 29 23 20 20 17 15 16 16 16
60 51 55 55 67 88 97 104 93 82 82 73 77 73 68 62 56 49 45 41 35 32 27 22 20 18 17 20 16 12 11 13
47 56 48 61 82 90 102 102 95 93 86 74 75 73 65 59 52 46 41 37 33 30 24 20 19 17 15 16 14 9 6 7
50 60 55 68 75 92 100 93 88 95 88 78 79 72 64 54 47 42 39 33 29 25 17 17 18 15 13 14 13 10 6 1
43 60 66 73 78 89 93 95 91 83 78 84 78 73 62 47 41 40 37 35 29 23 21 18 17 18 16 14 17 16 16 13
33 54 73 84 86 83 77 81 77 80 81 80 79 71 57 44 40 40 37 38 34 27 21 19 19 16 18 16 22 24 25 25
26 38 61 83 82 73 74 85 79 81 79 80 76 66 53 50 45 42 41 35 25 26 23 24 24 25 27 28 31 34 36 34
24 27 44 66 69 81 88 95 84 84 72 75 72 75 61 53 45 40 37 31 26 30 31 32 31 35 39 36 36 42 47 44
34 32 49 65 80 85 86 81 81 90 70 78 77 80 69 55 53 45 35 31 28 28 34 39 41 42 48 41 17 29 27 31
47 44 51 71 75 82 90 83 98 98 80 71 73 77 72 66 51 41 37 33 35 35 40 44 47 56 57 58 58 57 35 20
36 50 52 61 75 78 82 83 83 98 94 85 82 85 79 77 57 44 41 40 40 43 47 51 57 65 67 70 62 65 62 62
39 54 62 66 70 74 81 85 84 90 100 90 83 80 84 85 87 73 59 54 50 47 50 57 62 67 69 72 67 66 64 63
46 53 60 69 73 75 78 83 83 86 100 98 96 91 91 91 95 99 82 70 61 62 62 68 67 66 65 74 65 67 70 67
50 54 59 62 71 79 85 88 88 88 93 99 105 107 97 98 94 94 96 79 71 73 78 76 76 54 67 63 53 61 71 68
Wind_Direction_500mb
200 200 200 190 203 207 188 167 168 163 165 167 164 163 163 158 151 147 146 140 134 135 132 124 117 111 104 93 88 86 88 92
220 207 203 196 202 208 186 166 175 168 165 166 164 164 160 155 152 150 148 141 135 132 129 126 117 111 104 94 91 89 90 92
204 212 221 224 198 178 163 162 170 168 166 168 163 162 159 157 155 154 153 149 141 134 129 123 118 115 105 94 94 91 84 82
146 99 177 202 202 171 154 160 173 169 167 168 164 161 158 155 154 155 158 154 148 141 134 130 126 126 119 107 101 90 80 74
183 199 177 190 172 168 163 162 169 170 171 171 165 162 160 156 152 152 154 159 157 154 146 136 130 127 124 112 108 92 79 73
193 188 172 173 177 169 163 167 168 175 175 179 170 165 163 161 156 157 155 157 160 151 148 142 131 127 129 119 112 91 77 67
181 175 175 177 178 171 170 172 171 174 175 182 174 171 167 162 157 162 157 157 160 159 151 143 136 132 136 132 119 97 78 66
182 188 192 189 187 185 179 174 174 177 174 179 183 176 172 166 162 162 161 161 158 159 158 150 142 131 138 143 141 117 87 62
205 192 197 193 181 179 182 180 179 182 177 183 188 181 176 172 168 167 163 162 161 163 160 168 164 148 151 158 158 149 98 76
199 202 197 198 193 188 185 189 188 183 185 187 188 183 182 178 175 169 172 167 171 171 170 175 177 178 174 188 191 206 222 216
200 199 203 198 187 185 188 188 186 192 194 191 185 185 184 182 182 180 181 180 182 186 183 183 184 196 211 217 222 236 246 253
200 203 197 193 190 190 185 183 196 196 192 188 185 185 183 185 192 194 186 189 192 195 197 207 212 227 237 251 246 250 253 256
215 215 201 198 199 190 183 184 194 192 189 189 186 183 187 191 195 199 194 198 215 214 217 228 234 237 244 253 250 253 255 254
201 194 200 207 192 185 188 185 194 187 195 192 190 185 190 195 202 203 206 210 221 220 231 239 242 242 246 252 252 257 258 260
198 201 202 202 196 190 188 196 195 182 194 189 195 193 202 210 213 218 221 230 239 242 248 246 248 251 250 244 234 240 258 263
187 193 193 197 198 196 197 194 191 194 197 189 196 208 203 212 214 218 226 239 249 257 260 257 257 252 250 252 250 255 254 265
185 192 192 197 206 202 202 210 202 201 203 198 201 207 212 214 224 238 243 252 262 264 263 260 260 258 257 255 252 254 258 257
193 195 198 201 204 207 207 209 213 207 206 209 210 220 224 220 232 242 246 249 257 261 266 265 264 262 265 254 257 253 258 265
206 200 202 204 207 210 211 216 220 215 212 215 215 225 235 230 234 241 245 245 257 262 270 270 269 261 264 263 259 259 264 269
217 213 206 207 208 210 214 216 217 218 220 224 225 231 232 233 245 248 241 244 260 268 269 266 266 258 265 266 260 262 263 263
Wind_Speed_850mb
55 63 55 50 51 57 63 59 64 59 66 73 72 70 66 62 63 61 55 50 49 51 50 47 40 37 35 36 38 37 37 37
53 55 69 51 54 60 77 77 63 69 74 75 73 67 61 63 65 62 55 48 47 48 46 42 38 35 32 32 34 35 35 35
31 54 68 48 26 63 89 72 66 73 80 77 74 68 65 66 64 61 53 47 45 45 44 39 36 31 27 28 30 32 32 32
48 16 34 45 48 69 83 72 70 71 78 79 75 71 67 65 60 57 53 46 42 38 34 31 26 26 27 25 25 29 29 30
41 20 47 40 74 64 86 76 70 65 75 76 76 73 69 65 61 56 51 44 42 40 34 26 23 23 23 22 22 24 26 27
39 33 57 66 70 81 95 86 79 72 70 74 77 74 70 66 60 54 52 45 39 37 38 30 24 23 19 20 19 19 21 21
34 56 62 60 62 88 99 89 82 80 81 79 77 74 68 64 59 52 47 46 39 36 34 29 23 20 20 17 15 16 16 16
60 51 55 55 67 88 97 104 93 82 82 73 77 73 68 62 56 49 45 41 35 32 27 22 20 18 17 20 16 12 11 13
47 56 48 61 82 90 102 102 95 93 86 74 75 73 65 59 52 46 41 37 33 30 24 20 19 17 15 16 14 9 6 7
50 60 55 68 75 92 100 93 88 95 88 78 79 72 64 54 47 42 39 33 29 25 17 17 18 15 13 14 13 10 6 1
43 60 66 73 78 89 93 95 91 83 78 84 78 73 62 47 41 40 37 35 29 23 21 18 17 18 16 14 17 16 16 13
33 54 73 84 86 83 77 81 77 80 81 80 79 71 57 44 40 40 37 38 34 27 21 19 19 16 18 16 22 24 25 25
26 38 61 83 82 73 74 85 79 81 79 80 76 66 53 50 45 42 41 35 25 26 23 24 24 25 27 28 31 34 36 34
24 27 44 66 69 81 88 95 84 84 72 75 72 75 61 53 45 40 37 31 26 30 31 32 31 35 39 36 36 42 47 44
34 32 49 65 80 85 86 81 81 90 70 78 77 80 69 55 53 45 35 31 28 28 34 39 41 42 48 41 17 29 27 31
47 44 51 71 75 82 90 83 98 98 80 71 73 77 72 66 51 41 37 33 35 35 40 44 47 56 57 58 58 57 35 20
36 50 52 61 75 78 82 83 83 98 94 85 82 85 79 77 57 44 41 40 40 43 47 51 57 65 67 70 62 65 62 62
39 54 62 66 70 74 81 85 84 90 100 90 83 80 84 85 87 73 59 54 50 47 50 57 62 67 69 72 67 66 64 63
46 53 60 69 73 75 78 83 83 86 100 98 96 91 91 91 95 99 82 70 61 62 62 68 67 66 65 74 65 67 70 67
50 54 59 62 71 79 85 88 88 88 93 99 105 107 97 98 94 94 96 79 71 73 78 76 76 54 67 63 53 61 71 68
Wind_Direction_850mb
200 200 200 190 203 207 188 167 168 163 165 167 164 163 163 158 151 147 146 140 134 135 132 124 117 111 104 93 88 86 88 92
220 207 203 196 202 208 186 166 175 168 165 166 164 164 160 155 152 150 148 141 135 132 129 126 117 111 104 94 91 89 90 92
204 212 221 224 198 178 163 162 170 168 166 168 163 162 159 157 155 154 153 149 141 134 129 123 118 115 105 94 94 91 84 82
146 99 177 202 202 171 154 160 173 169 167 168 164 161 158 155 154 155 158 154 148 141 134 130 126 126 119 107 101 90 80 74
183 199 177 190 172 168 163 162 169 170 171 171 165 162 160 156 152 152 154 159 157 154 146 136 130 127 124 112 108 92 79 73
193 188 172 173 177 169 163 167 168 175 175 179 170 165 163 161 156 157 155 157 160 151 148 142 131 127 129 119 112 91 77 67
181 175 175 177 178 171 170 172 171 174 175 182 174 171 167 162 157 162 157 157 160 159 151 143 136 132 136 132 119 97 78 66
182 188 192 189 187 185 179 174 174 177 174 179 183 176 172 166 162 162 161 161 158 159 158 150 142 131 138 143 141 117 87 62
205 192 197 193 181 179 182 180 179 182 177 183 188 181 176 172 168 167 163 162 161 163 160 168 164 148 151 158 158 149 98 76
199 202 197 198 193 188 185 189 188 183 185 187 188 183 182 178 175 169 172 167 171 171 170 175 177 178 174 188 191 206 222 216
200 199 203 198 187 185 188 188 186 192 194 191 185 185 184 182 182 180 181 180 182 186 183 183 184 196 211 217 222 236 246 253
200 203 197 193 190 190 185 183 196 196 192 188 185 185 183 185 192 194 186 189 192 195 197 207 212 227 237 251 246 250 253 256
215 215 201 198 199 190 183 184 194 192 189 189 186 183 187 191 195 199 194 198 215 214 217 228 234 237 244 253 250 253 255 254
201 194 200 207 192 185 188 185 194 187 195 192 190 185 190 195 202 203 206 210 221 220 231 239 242 242 246 252 252 257 258 260
198 201 202 202 196 190 188 196 195 182 194 189 195 193 202 210 213 218 221 230 239 242 248 246 248 251 250 244 234 240 258 263
187 193 193 197 198 196 197 194 191 194 197 189 196 208 203 212 214 218 226 239 249 257 260 257 257 252 250 252 250 255 254 265
185 192 192 197 206 202 202 210 202 201 203 198 201 207 212 214 224 238 243 252 262 264 263 260 260 258 257 255 252 254 258 257
193 195 198 201 204 207 207 209 213 207 206 209 210 220 224 220 232 242 246 249 257 261 266 265 264 262 265 254 257 253 258 265
206 200 202 204 207 210 211 216 220 215 212 215 215 225 235 230 234 241 245 245 257 262 270 270 269 261 264 263 259 259 264 269
217 213 206 207 208 210 214 216 217 218 220 224 225 231 232 233 245 248 241 244 260 268 269 266 266 258 265 266 260 262 263 263